Regional Weather Roundup
Issued by NWS Pendleton, OR

Home | Current Version | Previous Version | Text Only | Print | Product List | Glossary On
Versions: 1 2 3 4 5 6 7 8 9 10 11 12 13 14 15 16 17 18 19 20 21 22 23 24 25 26 27 28 29 30 31 32 33 34 35 36 37 38 39 40 41 42 43 44 45 46 47 48 49 50
659
ASUS46 KPDT 161310
RWRPDT
PENDLETON REGIONAL WEATHER ROUNDUP
NATIONAL WEATHER SERVICE PENDLETON OREGON
500 AM PST MON JAN 16 2017

NOTE: FAIR INDICATES FEW OR NO CLOUDS BELOW 12,000 FEET WITH NO
SIGNIFICANT WEATHER AND/OR OBSTRUCTIONS TO VISIBILITY.

# INDICATES UNOFFICIAL STATION AND DATA

WAZ520-161410-
EAST SLOPES OF WASHINGTON CASCADES

CITY            SKY/WX      TMP DP  RH  WIND    PRES   REMARKS
#CLE ELUM HS    N/A         16   9  73  CALM    30.34F
#CLE ELUM LAKE  N/A          8   6  91  CALM    30.56F
#GLENWOOD       N/A          9   7  91  CALM    30.60F
#NELSON 3SW     N/A          7   5  91  CALM    30.80S
#NILE           N/A         10   7  87  CALM    29.79F
#RONALD 2NW     N/A         12  N/A N/A CALM    30.17F
#TEANAWAY 4NE   N/A         12   9  87  CALM    N/A
#TROUT LAKE 1NE N/A         10   7  87  CALM    30.60S
#TROUT LAKE 1E  N/A          9   7  91  CALM    30.43S
$$

WAZ521-161410-
SIMCOE HIGHLANDS

CITY            SKY/WX      TMP DP  RH  WIND    PRES   REMARKS
#CENTERVILLE 1SWN/A          8   5  87  CALM    30.59S
#GOLDENDALE 1NE N/A          9  -1  63  N2      N/A
#GOLDENDALE 4W  N/A          9  -24 20  CALM    30.46S
#GOODNOE HILLS  N/A         11   4  73  E2      N/A
#LYLE 6NE       N/A         10   8  91  N1      30.57F
#PITT 4SE       N/A          6   4  91  CALM    30.64S
$$

WAZ026-161410-
KITTITAS VALLEY

CITY            SKY/WX      TMP DP  RH  WIND    PRES   REMARKS
ELLENSBURG AP   CLOUDY      15   9  77  SE3     30.43F
#ELLENSBURG CWU N/A         14  11  88  CALM    30.52F
#ELLENSBURG 3NE N/A         12   9  87  CALM    28.49F
#ELLENSBURG 1E  N/A         13  N/A N/A CALM    N/A
#KITTITAS 4N    N/A         13   8  80  CALM    30.42F
#KITTITAS 3S    N/A         14  11  88  E1      30.57F
#THORP 6N       N/A         10   8  91  CALM    30.60F
$$

WAZ027-161410-
YAKIMA VALLEY

CITY            SKY/WX      TMP DP  RH  WIND    PRES   REMARKS
YAKIMA AIRPORT  CLOUDY      15  11  84  CALM    30.51F FOG
YAKIMA-VAGABOND LGT SNOW    12  10  91  CALM    30.45F FOG
#MABTON         N/A         13  11  91  CALM    30.55S
#NACHES 2SW     N/A         12  10  91  CALM    30.44S
#TERRACE HTS    N/A         13  11  91  CALM    30.58F
#TOPPENISH      N/A         13  10  87  CALM    30.53F
#WEST VALLEY    N/A         14  11  88  CALM    30.60F
#W YAKIMA       N/A         13  11  91  CALM    30.62F
#WHITE SWAN 5E  N/A         11   9  91  CALM    30.63F
#WILEY CITY 3W  N/A         12   6  76  CALM    30.43F
$$

WAZ028-161410-
LOWER COLUMBIA BASIN...WASHINGTON

CITY            SKY/WX      TMP DP  RH  WIND    PRES   REMARKS
PASCO           LGT SNOW    12   8  84  N5      30.60S
PROSSER AWOS    N/A         12  10  91  NE3     30.59F
RICHLAND AWOS   LGT SNOW    14  11  88  CALM    30.59F
#BENTON CITY    N/A         11   8  87  CALM    30.53F
#CONNELL 5N     N/A          8   5  87  N2      30.63R
#CONNELL 5NW    N/A          9   6  87  CALM    30.60R
#ELTOPIA 6NW    N/A         11   8  87  CALM    29.49S
#KAHLOTUS       N/A          8   5  87  N5      30.63R
#KENNEWICK 3S   N/A         11   8  87  CALM    30.64R
#PATERSON       N/A         11   8  87  CALM    30.61R
#SAGEMOOR 2W    N/A         11   7  83  N2      30.47S
#TOUCHET 2S     N/A         10   7  87  CALM    30.61R
#WEST PASCO     N/A         14  10  84  NW1     30.62R
$$

WAZ029-161410-
FOOTHILLS OF THE BLUES...WASHINGTON

CITY            SKY/WX      TMP DP  RH  WIND    PRES   REMARKS
WALLA WALLA AP  CLOUDY      10   5  80  E7      30.50R
#CLYDE 6NW      N/A         10   7  87  CALM    30.61R
#DAYTON SCHOOL  N/A          5  -3  69  E1      30.47R
#LOWDEN 2SE     N/A         11   8  87  CALM    30.54R
#PLEASANT VIEW 1N/A          9   7  91  CALM    30.68R
#PRESCOTT       N/A         11   8  87  CALM    30.61R
#WHITMAN COLLEGEN/A         12   8  84  E1      30.67S
#WAITSBURG 5S   N/A          7   5  91  CALM    30.71F
#WAITSBURG 8N   N/A         10  N/A N/A CALM    30.50R
#WALLA WALLA 5E N/A         11   8  87  E1      N/A
#WALLA WALLA U  N/A         14  11  88  CALM    30.61S
#WHITMAN MISSIONN/A         13  10  87  CALM    30.64R
$$

WAZ030-161410-
BLUE MOUNTAINS...WASHINGTON

CITY            SKY/WX      TMP DP  RH  WIND    PRES   REMARKS
#DIXIE 5SE      N/A          8   5  87  CALM    30.22S
#SKI BLUEWOOD   N/A         19  16  88  CALM    30.19F
$$

ORZ009-041-WAZ024-161410-
COLUMBIA RIVER GORGE

CITY            SKY/WX      TMP DP  RH  WIND    PRES   REMARKS
HOOD RIVER AP   CLOUDY      14   9  80  E3      30.55F
THE DALLES AP   CLOUDY      12   7  80  CALM    30.60S
#ARLINGTON AIRPON/A         12  10  91  SE3     30.63S
#ARLINGTON HS   N/A         12   7  80  CALM    30.52F
#CELILO DOT     N/A         15   8  73  SW2     N/A
#LYLE           N/A         15  11  84  S1      30.63S
#MOSIER 1S      N/A         12  -4  48  CALM    30.50R
#MURDOCK        N/A         12   9  87  CALM    30.59S
#RUFUS DOT      N/A         14  10  84  S10     N/A
#SMITHVILLE     N/A         12   8  84  E1      30.56S

$$

ORZ510-161410-
NORTH CENTRAL OREGON

CITY            SKY/WX      TMP DP  RH  WIND    PRES   REMARKS
#ANTELOPE       N/A          0  -4  83  CALM    30.49R
#CHENOWITH 1W   N/A          8   6  91  E2      N/A
#COW CYN RST AREN/A         11  N/A N/A CALM    N/A
#DUFUR 9E       N/A          7   5  91  E6      30.67R
#GRASS VALLEY 1SN/A          5   2  87  CALM    30.29R
#KENT DOT       N/A          3  -3  75  CALM    N/A
#MAUPIN SCHOOL  N/A          2  -3  79  CALM    30.56R
#SHANIKO 5WSW   N/A         16  11  80  N2      N/A
#SHANIKO 4NW    N/A         16  13  88  W6      30.22S
#TYGH VALLEY 2NEN/A          2  -2  83  CALM    30.65R
#WAPANITIA AIRPON/A          3   0  87  CALM    30.67R
#WASCO DOT      N/A         11   7  83  E3      N/A
#WASCO 5NE      N/A          9   6  87  CALM    30.62S
$$

ORZ511-161410-
CENTRAL OREGON

CITY            SKY/WX      TMP DP  RH  WIND    PRES   REMARKS
BEND AIRPORT    PTCLDY      12   9  87  CALM    30.25F
MADRAS AIRPORT  CLOUDY       0  -4  83  CALM    30.37R FOG
PRINEVILLE AP   PTCLDY      14  10  84  CALM    30.27F
REDMOND AIRPORT PTCLDY       9   2  72  W3      30.26S
#ASHWOOD SCHOOL N/A          0  -3  87  CALM    30.26S
#BEND 1SW       N/A         21  19  92  SW2     N/A
#BEND-AWBREY    N/A         22  20  92  SW3     30.42F
#BEND-KIM LN    N/A          9   7  91  CALM    30.49F
#CULVER         N/A          1  -2  87  CALM    30.53R
#CULVER 8W      N/A          6  -4  62  CALM    30.26S
#MADRAS 4S      N/A         -2  -32 21  CALM    30.39R
#POWELL BUTTE   N/A         20  11  67  CALM    30.17R
#PRINEVILLE 3N  N/A          3   0  87  CALM    30.55F
#WARM SPRINGS   N/A         -1  -5  83  CALM    30.38S

$$


ORZ509-161410-
EAST SLOPES OF OREGON CASCADES

CITY            SKY/WX      TMP DP  RH  WIND    PRES   REMARKS
SISTERS AWOS    N/A          3   0  87  CALM    30.19S
#CAMP SHERMAN   N/A          3  -3  75  CALM    30.58R
#LA PINE 4NW    N/A          5   1  83  CALM    30.58F
#LAVA BUTTE DOT N/A         19  16  88  S1      N/A
#SISTERS ODOT   N/A          3  N/A N/A CALM    N/A
#SISTERS 3N     N/A          1  -6  72  CALM    30.26S
#SUNRIVER       N/A         12  10  91  S1      30.29F
#SUTTLE LK DOT  N/A          5   5  100 CALM    N/A
#TUMALO 3W      N/A         18  16  92  CALM    30.34S
#WANOGA BUTTE D N/A         35   7  30  W8      N/A

$$

ORZ044-161410-
LOWER COLUMBIA BASIN...OREGON

CITY            SKY/WX      TMP DP  RH  WIND    PRES   REMARKS
HERMISTON       LGT SNOW    11   7  83  CALM    30.56R FOG
#BOARDMAN SCHOOLN/A         13  10  87  CALM    30.59S
#ECHO 8SW       N/A          9   3  76  N1      30.57R
#I-84 EX 198 DOTN/A          9   7  91  CALM    N/A
#UMATILLA       N/A         12   6  76  CALM    30.55S
$$

ORZ507-161410-
NORTHERN FOOTHILLS OF THE BLUES

CITY            SKY/WX      TMP DP  RH  WIND    PRES   REMARKS
PENDLETON AIRPT LGT SNOW     5   1  83  N3      30.46R FOG
#ADAMS 3WNW     N/A          3   0  87  CALM    30.61F
#ATHENA         N/A          4   1  87  CALM    30.64F
#HELIX SCHOOL   N/A          6   3  87  CALM    30.61S
#HELIX 3N       N/A          9   6  87  CALM    30.36S
#HOLDMAN 5SE    N/A          8   5  87  CALM    30.44S
#HOLDMAN 6E     N/A          9   7  91  CALM    30.40R
#M-F GROVE ELEM N/A         11   4  73  CALM    30.46S
#PENDLETON DNTN N/A          5  -5  62  CALM    30.48F
#PDT AQUATIC CTRN/A          5  -3  69  CALM    30.46F
#PDT SUNRIDGE   N/A          4   0  83  CALM    30.50F
#PENDLETON 7NW  N/A          8   3  79  CALM    N/A
#PILOT ROCK 1S  N/A          3  -5  68  CALM    30.41F
#PILOT ROCK     N/A          7   3  83  N1      30.42F
#TUTUILLA       N/A          7   3  83  CALM    30.58F
#WESTON SCHOOL  N/A          1  -6  72  CALM    30.33S

$$

ORZ508-161410-
SOUTHERN FOOTHILLS OF THE BLUES

CITY            SKY/WX      TMP DP  RH  WIND    PRES   REMARKS
LEXINGTON       CLOUDY       5   1  83  CALM    30.49R
#AJAX           N/A          6  -5  60  N2      28.11R
#CONDON SCHOOL  N/A          4   1  87  CALM    30.24S
#CONDON 5W      N/A          8   3  79  S2      30.23R
#FOSSIL SCHOOL  N/A          2  -1  87  CALM    30.25S
#HEPPNER EOC    N/A          2  -2  83  CALM    30.54R
#HEPPNER 4NE    N/A          3   0  87  CALM    30.61R
#LEXINGTON 2SE  N/A          1  -5  75  CALM    30.44R
#MIKKALO        N/A         10   3  73  E5      30.55R
#OLEX 4N        N/A         11   8  87  CALM    30.46F
#RUGGS 5NE      N/A          6  -8  51  CALM    30.43S
#RUGGS 2SW      N/A          1  -2  87  CALM    30.64R

$$

ORZ502-503-161410-
BLUE MOUNTAINS

CITY            SKY/WX      TMP DP  RH  WIND    PRES   REMARKS
MEACHAM         PTCLDY      -3  -10 71  CALM    30.25F
#BATTLE MTN DOT N/A         13  11  91  S6      N/A
#GREENHORN 9SW  N/A          2  -1  87  CALM    30.21R
#HEPPNER 15SE   N/A         20  18  92  CALM    25.72F
#LADD CYN SMT   N/A          1  -3  83  SE16    N/A    WCI -19
#LADD CREEK ODOTN/A          2  -1  87  W7      N/A
#LONG CREEK HS  N/A         13  13  100 CALM    N/A
#N POWDER DOT   N/A         -14 -18 81  W8      N/A
#PIKES PEAK     N/A         17  11  77  CALM    27.99S
#TOLLGATE       N/A         20  17  88  CALM    30.03F
#TROY SCHOOL    N/A          4   1  87  CALM    30.49S
#UKIAH          N/A         -6  -9  86  CALM    30.60S
#WESTON 4E      N/A         14  12  92  CALM    30.51F
$$

ORZ505-161410-
JOHN DAY BASIN

CITY            SKY/WX      TMP DP  RH  WIND    PRES   REMARKS
JOHN DAY        PTCLDY      19  15  84  SE5     30.28S
#JOHN DAY KJDY  N/A          7  N/A N/A CALM    32.58F
#ANTELOPE 9ESE  N/A          0  -4  83  SW1     N/A
#DAYVILLE SCHOOLN/A          6   1  79  CALM    30.32R
#MITCHELL       N/A          4   1  87  CALM    30.46F
#MITCHELL 8NW   N/A         16  14  92  CALM    30.34F
#MONUMENT HS    N/A         -2  -9  71  CALM    30.55R
#MT. VERNON 5SE N/A         19  16  88  CALM    30.20F
#SPRAY SCHOOL   N/A         -4  N/A N/A CALM    N/A
$$

ORZ506-161410-
OCHOCO AND JOHN DAY HIGHLANDS

CITY            SKY/WX      TMP DP  RH  WIND    PRES   REMARKS
#HORSE RIDGE DO N/A          8   3  79  SE7     N/A
#KEYES SMT DOT  N/A         14  11  88  CALM    N/A
#PAULINA SCHOOL N/A         -6  -11 78  CALM    N/A
#PINE MTN OBS   N/A         37   4  24  SE6     N/A
#PRAIRIE CITY   N/A          4  -5  65  CALM    30.45S
#SENECA         N/A         -9  N/A N/A CALM    N/A
#SENECA 9NW     N/A         -3  -6  87  CALM    30.68S
$$

ORZ049-161410-
GRANDE RONDE VALLEY

CITY            SKY/WX      TMP DP  RH  WIND    PRES   REMARKS
LA GRANDE       PTCLDY      -6  -9  86  CALM    30.38S
#COVE           N/A         -2  -6  82  CALM    30.38S
#COVE 6NW       N/A         -5  -9  82  CALM    30.73S
#ELGIN 3N       N/A         -13 -27 48  CALM    30.34S
#ELGIN 1E       N/A         -7  -13 74  CALM    N/A
#IMBLER SCHOOL  N/A         -4  -7  86  CALM    30.33S
#ISLAND CITY 4N N/A         23  22  96  CALM    30.32S
#UNION 1S       N/A          0  -3  87  CALM    30.69R
$$

ORZ050-161410-
WALLOWA COUNTY

CITY            SKY/WX      TMP DP  RH  WIND    PRES   REMARKS
JOSEPH AIRPORT  PTCLDY       7   3  83  CALM    30.27R
#IMNAHA SCHOOL  N/A         11   8  87  CALM    30.40F
#IMNAHA 10S     N/A         11   8  87  CALM    30.31F
#JOSEPH 3N      N/A         -3  -12 64  CALM    30.26F
#JOSEPH 3W      N/A         16  10  77  CALM    30.04S
#LOSTINE        N/A         -4  -8  82  CALM    30.53R
#LOSTINE 3SE    N/A         -1  -4  87  CALM    30.38R
#MT HOWARD 8000 N/A         26   2  35  CALM    30.09F
#PROMISE 1S     N/A          7   4  87  CALM    30.67R
#WALLOWA SCHOOL N/A         -9  -13 82  CALM    30.32S



$$



USA.gov is the U.S. government's official web portal to all federal, state and local government web resources and services.